[[{"header":{"parameterUnit":"m.s-1","parameterCategory":1,"la1":30.2991,"la2":30.254,"lo1":-89.0895,"lo2":-89.0444,"dy":0.0017,"dx":0.0017,"nx":28,"ny":28,"refTime":"2023-09-29T03:00:00:Z","depth":0,"parameterNumber":2,"parameterNumberName":"U-component_of_WINDS"},"data":[0,0,0,0,0,0,0,0,0,0,0,0,0,0,0,0,0,0,0,0,0,0,0,0,0,0,0,0,0,0,0,0,0,0,0,0,0,0,0,0,0,0,0,0,0,0,0,0,0,0,0,0,0,0,0,0,0,0,-0.7989,-0.7989,0,-0.799,-0.799,-0.799,-0.7968,-0.7967,-0.7967,-0.7966,-0.797,-0.7971,-0.7972,0,0,0,0,0,0,0,0,0,0,0,0,0,-0.7971,-0.7971,-0.7989,-0.7989,-0.7989,-0.799,-0.799,-0.799,-0.7968,-0.7967,-0.7967,-0.7966,-0.797,-0.7971,-0.7972,0,0,0,0,0,0,0,0,0,0,0,0,0,-0.7976,-0.7971,-0.7989,-0.7978,-0.7977,-0.799,-0.799,-0.799,-0.7968,-0.7967,-0.7966,-0.7966,-0.797,-0.7971,-0.7972,-0.7996,0,0,-0.7975,-0.7975,0,0,0,0,0,0,0,0,-0.7976,-0.7977,-0.798,-0.7979,-0.7978,-0.7978,-0.7985,-0.7992,-0.7969,-0.7972,-0.7966,-0.7965,-0.7974,-0.7974,-0.7977,-0.7996,-0.7997,-0.7975,-0.7976,-0.7976,-0.7976,0,0,0,0,0,0,0,-0.7976,-0.7977,-0.7989,-0.798,-0.7978,-0.7974,-0.7974,-0.7987,-0.7978,-0.7971,-0.797,-0.797,-0.7973,-0.7976,-0.7977,-0.7997,-0.7975,-0.7976,-0.7977,-0.7977,-0.804,-0.8041,0,0,0,0,0,0,-0.7976,-0.7977,-0.7989,-0.7989,-0.7974,-0.7975,-0.7975,-0.7979,-0.7978,-0.7977,-0.7971,-0.7969,-0.7975,-0.7976,-0.7977,-0.8008,-0.7976,-0.7977,-0.7978,-0.8039,-0.804,-0.8041,0,0,0,0,0,0,-0.7976,-0.7978,-0.7989,-0.7983,-0.7984,-0.7977,-0.7981,-0.7979,-0.7982,-0.7977,-0.7976,-0.7975,-0.7974,-0.7975,-0.7992,-0.8008,-0.7977,-0.7978,-0.8038,-0.8039,-0.8041,-0.8069,0,0,0,0,0,0,-0.7975,-0.7978,-0.7986,-0.7983,-0.7984,-0.8004,-0.7982,-0.798,-0.7984,-0.7981,-0.7981,-0.798,-0.7973,-0.7991,-0.7993,-0.8008,-0.7979,-0.8036,-0.8038,-0.804,-0.8067,-0.8071,-0.8075,0,0,0,0,0,-0.7975,-0.7994,-0.7986,-0.7988,-0.7994,-0.8004,-0.8005,-0.7997,-0.7985,-0.7994,-0.7991,-0.798,-0.8005,-0.7993,-0.7995,-0.8011,-0.8035,-0.8038,-0.804,-0.8065,-0.807,-0.8075,0,0,0,0,0,0,-0.7999,-0.7993,-0.7985,-0.8003,-0.8004,-0.8001,-0.8012,-0.8002,-0.8008,-0.8006,-0.7995,-0.7995,-0.8015,-0.8014,-0.8,-0.8036,-0.8018,-0.8021,-0.8036,-0.8041,-0.8046,-0.8047,-0.798,0,0,0,0,0,-0.8006,-0.8014,-0.8009,-0.8025,-0.8026,-0.8019,-0.8023,-0.8016,-0.8018,-0.8019,-0.8017,-0.802,-0.8029,-0.8035,-0.8042,-0.8066,-0.8067,-0.8078,-0.8082,-0.8086,-0.809,-0.8105,-0.8111,-0.8049,-0.8049,-0.8049,0,0,-0.8022,-0.802,-0.8025,-0.803,-0.803,-0.8041,-0.802,-0.8031,-0.8039,-0.802,-0.8037,-0.8036,-0.8038,-0.806,-0.8069,-0.806,-0.8107,-0.8089,-0.8092,-0.8094,-0.8108,-0.8114,-0.8119,-0.8051,-0.8051,-0.805,0,0,-0.8056,-0.8054,-0.8068,-0.8069,-0.807,-0.8065,-0.8069,-0.8067,-0.8066,-0.8081,-0.8069,-0.8079,-0.8093,-0.8096,-0.81,-0.8137,-0.8128,-0.8139,-0.8163,-0.8178,-0.8183,-0.8188,-0.8204,-0.8209,-0.8142,-0.8142,-0.8142,0,-0.8076,-0.8089,-0.8077,-0.809,-0.8094,-0.8077,-0.8093,-0.8095,-0.8098,-0.8102,-0.8091,-0.8111,-0.8111,-0.8135,-0.8144,-0.8146,-0.8152,-0.814,-0.8183,-0.8187,-0.8191,-0.8207,-0.8213,-0.8144,-0.8144,-0.8144,-0.8144,0,-0.8115,-0.8124,-0.8136,-0.814,-0.8145,-0.8159,-0.8151,-0.8158,-0.8151,-0.8148,-0.8166,-0.8166,-0.8174,-0.8179,-0.8172,-0.8202,-0.8197,-0.8185,-0.8167,-0.8199,-0.8214,-0.8219,-0.8146,-0.8146,-0.8145,-0.8145,0,0,-0.8165,-0.8162,-0.8167,-0.817,-0.817,-0.8178,-0.8192,-0.82,-0.8207,-0.821,-0.8224,-0.8237,-0.8227,-0.8231,-0.8224,-0.8237,-0.8271,-0.8224,-0.8224,-0.8236,-0.8308,-0.8319,-0.8326,-0.8264,-0.8265,-0.8265,-0.8309,0,-0.82,-0.8224,-0.8214,-0.824,-0.825,-0.8235,-0.8248,-0.825,-0.8248,-0.8258,-0.8255,-0.8266,-0.825,-0.8253,-0.8265,-0.8264,-0.8286,-0.826,-0.8279,-0.828,-0.8282,-0.8333,-0.8344,-0.8385,-0.8314,-0.8315,-0.8315,0,-0.8244,-0.825,-0.8276,-0.8276,-0.828,-0.8292,-0.83,-0.8308,-0.8311,-0.8309,-0.8314,-0.8305,-0.8322,-0.8302,-0.8326,-0.831,-0.8317,-0.8318,-0.8319,-0.8323,-0.8302,-0.8341,-0.8397,-0.8405,-0.8324,-0.8323,-0.8322,0,-0.8282,-0.8295,-0.8314,-0.8316,-0.8316,-0.8325,-0.8325,-0.8327,-0.8334,-0.8341,-0.8345,-0.8354,-0.836,-0.8368,-0.8363,-0.8348,-0.8389,-0.8368,-0.839,-0.839,-0.8401,-0.8401,-0.8463,-0.8401,-0.84,-0.84,-0.84,0,-0.8324,-0.8342,-0.8331,-0.8342,-0.8362,-0.8352,-0.8372,-0.8371,-0.8374,-0.8386,-0.8373,-0.8386,-0.8376,-0.8389,-0.8384,-0.8407,-0.8409,-0.841,-0.8409,-0.8412,-0.8413,-0.8419,-0.8417,-0.8402,-0.8402,-0.8401,-0.8401,0,-0.8371,-0.8363,-0.8383,-0.8381,-0.8381,-0.8397,-0.8396,-0.8408,-0.8404,-0.8421,-0.8424,-0.842,-0.8434,-0.8429,-0.8443,-0.8441,-0.8471,-0.8465,-0.847,-0.8469,-0.8493,-0.8492,-0.8563,-0.8573,-0.8502,-0.8502,-0.8503,0,-0.8399,-0.8413,-0.8412,-0.842,-0.8421,-0.8432,-0.8439,-0.8429,-0.8437,-0.8443,-0.8455,-0.8467,-0.8477,-0.8501,-0.85,-0.8512,-0.8508,-0.8532,-0.851,-0.8515,-0.8513,-0.8514,-0.8517,-0.8538,-0.8539,-0.8539,-0.854,0,-0.8452,-0.8448,-0.8457,-0.8466,-0.8474,-0.848,-0.8485,-0.8492,-0.8483,-0.8493,-0.8507,-0.8514,-0.853,-0.8544,-0.8555,-0.8558,-0.8549,-0.8546,-0.8553,-0.8558,-0.8562,-0.8564,-0.8485,-0.8545,-0.8545,-0.8544,-0.8544,-0.8544,-0.8493,-0.8505,-0.8507,-0.8519,-0.8521,-0.8527,-0.8539,-0.8537,-0.8548,-0.856,-0.8554,-0.8571,-0.8576,-0.8591,-0.8595,-0.861,-0.8601,-0.8609,-0.8612,-0.8615,-0.8619,-0.8557,-0.8611,-0.8611,-0.8611,-0.8611,-0.861,0,-0.8548,-0.8549,-0.8559,-0.8567,-0.8577,-0.8565,-0.8571,-0.858,-0.8595,-0.86,-0.861,-0.8628,-0.8642,-0.8643,-0.8656,-0.8668,-0.8665,-0.8673,-0.8673,-0.8675,-0.8625,-0.8619,-0.8676,-0.8676,-0.8676,-0.8676,-0.8676,-0.8676,-0.8578,-0.8599,-0.8595,-0.8618,-0.8619,-0.8636,-0.864,-0.8647,-0.8651,-0.8671,-0.8682,-0.8682,-0.8687,-0.8701,-0.8714,-0.8714,-0.8721,-0.8732,-0.8731,-0.8684,-0.8678,-0.8672,-0.8667,-0.8732,-0.8732,-0.878,-0.878,-0.8781]},{"header":{"parameterUnit":"m.s-1","parameterCategory":1,"la1":30.2991,"la2":30.254,"lo1":-89.0895,"lo2":-89.0444,"dy":0.0017,"dx":0.0017,"nx":28,"ny":28,"refTime":"2023-09-29T03:00:00:Z","depth":0,"parameterNumber":3,"parameterNumberName":"V-component_of_WINDS"},"data":[0,0,0,0,0,0,0,0,0,0,0,0,0,0,0,0,0,0,0,0,0,0,0,0,0,0,0,0,0,0,0,0,0,0,0,0,0,0,0,0,0,0,0,0,0,0,0,0,0,0,0,0,0,0,0,0,0,0,1.4713,1.4712,0,1.4638,1.4637,1.4636,1.4581,1.4581,1.458,1.458,1.4498,1.4497,1.4495,0,0,0,0,0,0,0,0,0,0,0,0,0,1.4805,1.4804,1.4713,1.4712,1.4711,1.4638,1.4637,1.4636,1.4581,1.4581,1.458,1.458,1.4499,1.4497,1.4495,0,0,0,0,0,0,0,0,0,0,0,0,0,1.4751,1.4803,1.4713,1.4675,1.4671,1.4638,1.4637,1.4636,1.4582,1.4581,1.458,1.458,1.45,1.4497,1.4495,1.4492,0,0,1.4487,1.4485,0,0,0,0,0,0,0,0,1.4754,1.4748,1.4682,1.4678,1.4673,1.4618,1.4639,1.4587,1.4582,1.4615,1.458,1.4579,1.4539,1.4533,1.452,1.4488,1.4485,1.4486,1.4485,1.4484,1.4483,0,0,0,0,0,0,0,1.4758,1.475,1.4683,1.4681,1.4676,1.4661,1.4652,1.4629,1.4582,1.4612,1.4608,1.46,1.4536,1.4523,1.4518,1.4483,1.4486,1.4484,1.4482,1.4481,1.4443,1.4444,0,0,0,0,0,0,1.4768,1.4754,1.4685,1.4681,1.4713,1.4659,1.465,1.4637,1.4582,1.4573,1.4601,1.4598,1.4527,1.4521,1.4515,1.4506,1.4484,1.4481,1.448,1.4443,1.4444,1.4444,0,0,0,0,0,0,1.477,1.4763,1.4688,1.4716,1.4706,1.4659,1.4644,1.4635,1.4622,1.4573,1.4564,1.4596,1.4527,1.4518,1.4498,1.4503,1.448,1.4478,1.4442,1.4443,1.4444,1.449,0,0,0,0,0,0,1.4773,1.4764,1.4763,1.4717,1.4705,1.4675,1.4644,1.4634,1.4618,1.4614,1.4566,1.4558,1.4525,1.4502,1.4495,1.4498,1.4476,1.4441,1.4443,1.4444,1.4488,1.4493,1.4497,0,0,0,0,0,1.4777,1.4779,1.4764,1.4756,1.4703,1.4675,1.4668,1.4632,1.4619,1.4617,1.4586,1.4559,1.4504,1.45,1.4492,1.4495,1.4441,1.4442,1.4443,1.4486,1.4492,1.4497,0,0,0,0,0,0,1.4825,1.4772,1.4754,1.4742,1.4714,1.4666,1.4662,1.4639,1.4613,1.461,1.4565,1.4555,1.4538,1.4515,1.4512,1.4488,1.4469,1.4469,1.4504,1.4509,1.4513,1.4518,1.4473,0,0,0,0,0,1.4835,1.4818,1.4772,1.4765,1.4752,1.471,1.4696,1.4671,1.464,1.4627,1.4594,1.4563,1.4538,1.4523,1.4497,1.4485,1.4473,1.4483,1.4487,1.4491,1.449,1.448,1.4484,1.4448,1.4448,1.4448,0,0,1.4854,1.4823,1.4814,1.4774,1.4749,1.4731,1.47,1.4682,1.4668,1.4624,1.4602,1.4577,1.4539,1.4523,1.4514,1.4502,1.4498,1.4493,1.4496,1.4493,1.4482,1.4485,1.4488,1.4449,1.4449,1.4449,0,0,1.4879,1.4855,1.4845,1.4821,1.4785,1.4757,1.4755,1.4711,1.4693,1.4671,1.4637,1.4619,1.4578,1.4552,1.4533,1.4548,1.4522,1.4541,1.4563,1.4553,1.4556,1.4558,1.4562,1.4564,1.4542,1.4542,1.4542,0,1.4906,1.4879,1.4843,1.4827,1.481,1.4771,1.476,1.4738,1.4695,1.4682,1.4671,1.4619,1.459,1.4566,1.457,1.4557,1.4552,1.4545,1.4559,1.4561,1.4562,1.4565,1.4566,1.4544,1.4544,1.4544,1.4543,0,1.4914,1.4895,1.4892,1.4852,1.4834,1.4821,1.4782,1.4768,1.4745,1.4718,1.4695,1.4661,1.4627,1.462,1.4597,1.4592,1.4586,1.4568,1.4547,1.4569,1.457,1.4571,1.4548,1.4547,1.4546,1.4545,0,0,1.4965,1.4907,1.4906,1.4887,1.4843,1.4827,1.4812,1.4781,1.4769,1.474,1.4725,1.4691,1.4674,1.4653,1.4626,1.4619,1.4631,1.4601,1.4599,1.4606,1.4621,1.4634,1.4636,1.4614,1.4614,1.4614,1.4623,0,1.4981,1.4953,1.492,1.4902,1.4883,1.4847,1.4833,1.4804,1.4779,1.4758,1.4729,1.4705,1.4685,1.4672,1.4663,1.4631,1.4633,1.463,1.4597,1.4596,1.4605,1.4637,1.465,1.466,1.4624,1.4624,1.4624,0,1.4996,1.4971,1.4951,1.4909,1.49,1.4888,1.4856,1.4838,1.4804,1.4786,1.4763,1.4735,1.4715,1.4698,1.4669,1.4668,1.4653,1.4635,1.4635,1.4628,1.461,1.4629,1.4663,1.4664,1.4625,1.4625,1.4625,0,1.5033,1.4994,1.4976,1.4962,1.4913,1.4905,1.4884,1.485,1.4833,1.4805,1.4793,1.4762,1.4745,1.4722,1.4685,1.4677,1.4659,1.464,1.4641,1.4642,1.4637,1.4638,1.4667,1.4632,1.4632,1.4632,1.4632,0,1.5053,1.5042,1.4992,1.4981,1.4967,1.493,1.4917,1.4892,1.4862,1.4845,1.4811,1.4795,1.475,1.4728,1.47,1.4678,1.4671,1.4655,1.4647,1.4656,1.4658,1.4644,1.4641,1.4632,1.4632,1.4632,1.4632,0,1.5091,1.5058,1.5036,1.4992,1.498,1.4972,1.4933,1.492,1.4894,1.4872,1.4865,1.4822,1.4794,1.4757,1.4717,1.4698,1.468,1.4669,1.4692,1.4687,1.469,1.4689,1.4709,1.4709,1.4676,1.4676,1.4677,0,1.5105,1.5095,1.5051,1.5037,1.5018,1.4997,1.4979,1.4942,1.4925,1.4886,1.4877,1.4848,1.4822,1.478,1.4744,1.4713,1.47,1.4709,1.4694,1.4704,1.4697,1.4697,1.4695,1.4711,1.4712,1.4712,1.4713,0,1.5132,1.5116,1.5093,1.5064,1.5045,1.502,1.4994,1.4985,1.4941,1.4924,1.4896,1.4877,1.4837,1.4807,1.4772,1.4748,1.4722,1.4718,1.4716,1.4725,1.4738,1.4729,1.4699,1.4717,1.4717,1.4716,1.4716,1.4716,1.5156,1.5146,1.5113,1.5088,1.5065,1.5041,1.5027,1.4999,1.4975,1.4941,1.492,1.4893,1.4858,1.4809,1.4787,1.4763,1.4753,1.4751,1.475,1.475,1.4752,1.4744,1.4757,1.4757,1.4757,1.4757,1.4757,0,1.518,1.5157,1.5135,1.51,1.508,1.506,1.503,1.5014,1.4991,1.4962,1.4938,1.4905,1.4876,1.4839,1.4807,1.4796,1.4783,1.4788,1.4787,1.4782,1.4764,1.4768,1.4799,1.4799,1.4799,1.4799,1.4799,1.4799,1.519,1.5171,1.5151,1.5119,1.5096,1.507,1.5054,1.5032,1.5008,1.4974,1.495,1.4927,1.4894,1.4859,1.4831,1.4821,1.4809,1.4818,1.4804,1.4787,1.4783,1.478,1.4783,1.4816,1.4816,1.4823,1.4823,1.4823]}]]